TimeCDT,TemperatureF,Dew PointF,Humidity,Sea Level PressureIn,VisibilityMPH,Wind Direction,Wind SpeedMPH,Gust SpeedMPH,PrecipitationIn,Events,Conditions,WindDirDegrees,DateUTC
12:56 AM,70.0,54.9,59,30.04,10.0,SSW,8.1,-,N/A,,Clear,200,2013-04-10 05:56:00
1:56 AM,68.9,54.9,61,30.02,10.0,South,8.1,-,N/A,,Clear,180,2013-04-10 06:56:00
2:56 AM,68.9,54.0,59,30.00,10.0,South,9.2,-,N/A,,Clear,170,2013-04-10 07:56:00
3:56 AM,68.0,54.0,61,29.98,10.0,South,11.5,-,N/A,,Clear,170,2013-04-10 08:56:00
4:56 AM,65.8,54.0,65,30.01,10.0,South,3.5,-,N/A,,Clear,180,2013-04-10 09:56:00
5:56 AM,54.0,50.9,89,30.05,10.0,Calm,Calm,-,N/A,,Clear,0,2013-04-10 10:56:00
6:56 AM,54.9,52.0,90,30.07,10.0,Calm,Calm,-,N/A,,Clear,0,2013-04-10 11:56:00
7:56 AM,70.0,56.8,63,30.09,10.0,South,6.9,-,N/A,,Clear,190,2013-04-10 12:56:00
8:56 AM,73.9,59.9,61,30.09,10.0,SW,13.8,-,N/A,,Clear,230,2013-04-10 13:56:00
9:56 AM,75.9,59.0,56,30.10,10.0,SSW,13.8,-,N/A,,Clear,210,2013-04-10 14:56:00
10:56 AM,77.9,59.0,52,30.09,10.0,SW,11.5,-,N/A,,Partly Cloudy,230,2013-04-10 15:56:00
11:56 AM,79.9,59.9,50,30.07,10.0,SSW,15.0,-,N/A,,Partly Cloudy,200,2013-04-10 16:56:00
12:56 PM,81.0,59.0,47,30.06,10.0,WSW,10.4,-,N/A,,Clear,240,2013-04-10 17:56:00
1:56 PM,81.9,59.9,47,30.03,10.0,WSW,10.4,-,N/A,,Clear,240,2013-04-10 18:56:00
2:56 PM,82.9,59.0,44,29.98,10.0,SSW,9.2,-,N/A,,Clear,200,2013-04-10 19:56:00
3:56 PM,84.9,54.9,36,29.94,10.0,SSW,12.7,-,N/A,,Clear,210,2013-04-10 20:56:00
4:56 PM,83.8,52.9,34,29.92,10.0,SW,9.2,-,N/A,,Clear,230,2013-04-10 21:56:00
5:56 PM,81.0,52.0,36,29.91,10.0,SW,10.4,-,N/A,,Clear,230,2013-04-10 22:56:00
6:56 PM,77.0,48.9,37,29.88,10.0,SW,5.8,-,N/A,,Clear,230,2013-04-10 23:56:00
7:56 PM,63.9,52.0,65,29.87,10.0,Calm,Calm,-,N/A,,Clear,0,2013-04-11 00:56:00
8:56 PM,75.9,55.9,50,29.86,10.0,South,10.4,-,N/A,,Clear,190,2013-04-11 01:56:00
9:56 PM,72.9,56.8,57,29.87,10.0,South,9.2,-,N/A,,Clear,190,2013-04-11 02:56:00
10:56 PM,72.0,55.9,57,29.88,10.0,SSW,8.1,-,N/A,,Clear,210,2013-04-11 03:56:00
11:56 PM,73.9,55.9,53,29.86,10.0,South,11.5,-,N/A,,Clear,190,2013-04-11 04:56:00